Time,TemperatureF,DewpointF,PressureIn,WindDirection,WindDirectionDegrees,WindSpeedMPH,WindSpeedGustMPH,Humidity,HourlyPrecipIn,Conditions,Clouds,dailyrainin,SoftwareType,DateUTC
2013-02-01 00:01:00,32.0,30.0,-100.00,West,278,1.0,4.0,91,0.00,,,0.00,,2013-02-01 07:01:00,
2013-02-01 00:11:00,32.0,30.0,-100.00,West,278,1.0,4.0,91,0.00,,,0.00,,2013-02-01 07:11:00,
2013-02-01 00:42:00,32.0,29.0,-100.00,North,2,3.0,6.0,87,0.00,,,0.00,,2013-02-01 07:42:00,
2013-02-01 00:52:00,32.0,29.0,-100.00,North,2,3.0,6.0,87,0.00,,,0.00,,2013-02-01 07:52:00,
2013-02-01 01:01:00,32.0,29.0,-100.00,North,2,3.0,6.0,87,0.00,,,0.00,,2013-02-01 08:01:00,
2013-02-01 01:11:00,32.0,29.0,-100.00,North,2,3.0,6.0,87,0.00,,,0.00,,2013-02-01 08:11:00,
2013-02-01 01:42:00,32.0,29.0,-100.00,North,355,3.0,6.0,88,0.00,,,0.00,,2013-02-01 08:42:00,
2013-02-01 01:52:00,32.0,29.0,-100.00,North,355,3.0,6.0,88,0.00,,,0.00,,2013-02-01 08:52:00,
2013-02-01 02:01:00,32.0,29.0,-100.00,North,355,3.0,6.0,88,0.00,,,0.00,,2013-02-01 09:01:00,
2013-02-01 02:11:00,32.0,29.0,-100.00,North,355,3.0,6.0,88,0.00,,,0.00,,2013-02-01 09:11:00,
2013-02-01 02:41:00,33.0,29.0,-100.00,North,5,7.0,14.0,85,0.00,,,0.00,,2013-02-01 09:41:00,
2013-02-01 02:52:00,33.0,29.0,-100.00,North,5,7.0,14.0,85,0.00,,,0.00,,2013-02-01 09:52:00,
2013-02-01 03:01:00,33.0,29.0,-100.00,North,5,7.0,14.0,85,0.00,,,0.00,,2013-02-01 10:01:00,
2013-02-01 03:11:00,33.0,29.0,-100.00,North,5,7.0,14.0,85,0.00,,,0.00,,2013-02-01 10:11:00,
2013-02-01 03:42:00,32.0,29.0,-100.00,NNW,330,3.0,9.0,88,0.00,,,0.00,,2013-02-01 10:42:00,
2013-02-01 03:53:00,32.0,29.0,-100.00,NNW,330,3.0,9.0,88,0.00,,,0.00,,2013-02-01 10:53:00,
2013-02-01 04:01:00,32.0,29.0,-100.00,NNW,330,3.0,9.0,88,0.00,,,0.00,,2013-02-01 11:01:00,
2013-02-01 04:11:00,32.0,29.0,-100.00,NNW,330,3.0,9.0,88,0.00,,,0.00,,2013-02-01 11:11:00,
2013-02-01 04:41:00,32.0,29.0,-100.00,NE,38,5.0,10.0,90,0.00,,,0.00,,2013-02-01 11:41:00,
2013-02-01 04:53:00,32.0,29.0,-100.00,NE,38,5.0,10.0,90,0.00,,,0.00,,2013-02-01 11:53:00,
2013-02-01 05:02:00,32.0,29.0,-100.00,NE,38,5.0,10.0,90,0.00,,,0.00,,2013-02-01 12:02:00,
2013-02-01 05:12:00,32.0,29.0,-100.00,NE,38,5.0,10.0,90,0.00,,,0.00,,2013-02-01 12:12:00,
2013-02-01 05:42:00,32.0,30.0,-100.00,NE,44,6.0,10.0,90,0.00,,,0.00,,2013-02-01 12:42:00,
2013-02-01 05:52:00,32.0,30.0,-100.00,NE,44,6.0,10.0,90,0.00,,,0.00,,2013-02-01 12:52:00,
2013-02-01 06:02:00,32.0,30.0,-100.00,NE,44,6.0,10.0,90,0.00,,,0.00,,2013-02-01 13:02:00,
2013-02-01 06:11:00,32.0,30.0,-100.00,NE,44,6.0,10.0,90,0.00,,,0.00,,2013-02-01 13:11:00,
2013-02-01 06:42:00,32.0,32.0,-100.00,ENE,74,6.0,9.0,100,0.02,,,0.02,,2013-02-01 13:42:00,
2013-02-01 06:53:00,32.0,32.0,-100.00,ENE,74,6.0,9.0,100,0.02,,,0.02,,2013-02-01 13:53:00,
2013-02-01 07:03:00,32.0,32.0,-100.00,ENE,74,6.0,9.0,100,0.02,,,0.02,,2013-02-01 14:03:00,
2013-02-01 07:11:00,32.0,32.0,-100.00,ENE,74,6.0,9.0,100,0.02,,,0.02,,2013-02-01 14:11:00,
2013-02-01 07:42:00,30.0,30.0,-100.00,SE,140,3.0,6.0,100,0.01,,,0.03,,2013-02-01 14:42:00,
2013-02-01 07:52:00,30.0,30.0,-100.00,SE,140,3.0,6.0,100,0.01,,,0.03,,2013-02-01 14:52:00,
2013-02-01 08:02:00,30.0,30.0,-100.00,SE,140,3.0,6.0,100,0.01,,,0.03,,2013-02-01 15:02:00,
2013-02-01 08:11:00,30.0,30.0,-100.00,SE,140,3.0,6.0,100,0.01,,,0.03,,2013-02-01 15:11:00,
2013-02-01 08:42:00,30.0,29.0,-100.00,SSE,148,5.0,13.0,93,0.00,,,0.03,,2013-02-01 15:42:00,
2013-02-01 08:52:00,30.0,29.0,-100.00,SSE,148,5.0,13.0,93,0.00,,,0.03,,2013-02-01 15:52:00,
2013-02-01 09:02:00,30.0,29.0,-100.00,SSE,148,5.0,13.0,93,0.00,,,0.03,,2013-02-01 16:02:00,
2013-02-01 09:11:00,30.0,29.0,-100.00,SSE,148,5.0,13.0,93,0.00,,,0.03,,2013-02-01 16:11:00,
2013-02-01 09:42:00,33.0,26.0,-100.00,SSW,192,4.0,9.0,76,0.00,,,0.03,,2013-02-01 16:42:00,
2013-02-01 09:52:00,33.0,26.0,-100.00,SSW,192,4.0,9.0,76,0.00,,,0.03,,2013-02-01 16:52:00,
2013-02-01 10:02:00,33.0,26.0,-100.00,SSW,192,4.0,9.0,76,0.00,,,0.03,,2013-02-01 17:02:00,
2013-02-01 10:11:00,33.0,26.0,-100.00,SSW,192,4.0,9.0,76,0.00,,,0.03,,2013-02-01 17:11:00,
2013-02-01 10:42:00,33.0,25.0,-100.00,SE,129,5.0,8.0,70,0.00,,,0.03,,2013-02-01 17:42:00,
2013-02-01 10:53:00,33.0,25.0,-100.00,SE,129,5.0,8.0,70,0.00,,,0.03,,2013-02-01 17:53:00,
2013-02-01 11:02:00,33.0,25.0,-100.00,SE,129,5.0,8.0,70,0.00,,,0.03,,2013-02-01 18:02:00,
2013-02-01 11:11:00,33.0,25.0,-100.00,SE,129,5.0,8.0,70,0.00,,,0.03,,2013-02-01 18:11:00,
2013-02-01 11:42:00,36.0,26.0,-100.00,East,93,6.0,10.0,69,0.00,,,0.03,,2013-02-01 18:42:00,
2013-02-01 11:53:00,36.0,26.0,-100.00,East,93,6.0,10.0,69,0.00,,,0.03,,2013-02-01 18:53:00,
2013-02-01 12:02:00,36.0,26.0,-100.00,East,93,6.0,10.0,69,0.00,,,0.03,,2013-02-01 19:02:00,
2013-02-01 12:11:00,36.0,26.0,-100.00,East,93,6.0,10.0,69,0.00,,,0.03,,2013-02-01 19:11:00,
2013-02-01 12:41:00,36.0,28.0,-100.00,ENE,76,6.0,10.0,73,0.00,,,0.03,,2013-02-01 19:41:00,
2013-02-01 12:52:00,36.0,28.0,-100.00,ENE,76,6.0,10.0,73,0.00,,,0.03,,2013-02-01 19:52:00,
2013-02-01 13:02:00,36.0,28.0,-100.00,ENE,76,6.0,10.0,73,0.00,,,0.03,,2013-02-01 20:02:00,
2013-02-01 13:11:00,36.0,28.0,-100.00,ENE,76,6.0,10.0,73,0.00,,,0.03,,2013-02-01 20:11:00,
2013-02-01 13:41:00,39.0,27.0,-100.00,East,79,4.0,9.0,60,0.00,,,0.03,,2013-02-01 20:41:00,
2013-02-01 13:52:00,39.0,27.0,-100.00,East,79,4.0,9.0,60,0.00,,,0.03,,2013-02-01 20:52:00,
2013-02-01 14:01:00,39.0,27.0,-100.00,East,79,4.0,9.0,60,0.00,,,0.03,,2013-02-01 21:01:00,
2013-02-01 14:11:00,39.0,27.0,-100.00,East,79,4.0,9.0,60,0.00,,,0.03,,2013-02-01 21:11:00,
2013-02-01 14:41:00,39.0,27.0,-100.00,ENE,74,7.0,12.0,62,0.00,,,0.03,,2013-02-01 21:41:00,
2013-02-01 14:52:00,39.0,27.0,-100.00,ENE,74,7.0,12.0,62,0.00,,,0.03,,2013-02-01 21:52:00,
2013-02-01 15:02:00,39.0,27.0,-100.00,ENE,74,7.0,12.0,62,0.00,,,0.03,,2013-02-01 22:02:00,
2013-02-01 15:11:00,39.0,27.0,-100.00,ENE,74,7.0,12.0,62,0.00,,,0.03,,2013-02-01 22:11:00,
2013-02-01 15:42:00,39.0,27.0,-100.00,East,80,8.0,11.0,61,0.00,,,0.03,,2013-02-01 22:42:00,
2013-02-01 15:52:00,39.0,27.0,-100.00,East,80,8.0,11.0,61,0.00,,,0.03,,2013-02-01 22:52:00,
2013-02-01 16:01:00,39.0,27.0,-100.00,East,80,8.0,11.0,61,0.00,,,0.03,,2013-02-01 23:01:00,
2013-02-01 16:11:00,39.0,27.0,-100.00,East,80,8.0,11.0,61,0.00,,,0.03,,2013-02-01 23:11:00,
2013-02-01 16:41:00,40.0,24.0,-100.00,East,93,5.0,11.0,52,0.00,,,-99.99,,2013-02-01 23:41:00,
2013-02-01 16:52:00,40.0,24.0,-100.00,East,93,5.0,11.0,52,0.00,,,-99.99,,2013-02-01 23:52:00,
2013-02-01 17:02:00,40.0,24.0,-100.00,East,93,5.0,11.0,52,0.00,,,-99.99,,2013-02-02 00:02:00,
2013-02-01 17:11:00,40.0,24.0,-100.00,East,93,5.0,11.0,52,0.00,,,-99.99,,2013-02-02 00:11:00,
2013-02-01 17:41:00,34.0,25.0,-100.00,NE,43,7.0,11.0,68,0.00,,,0.03,,2013-02-02 00:41:00,
2013-02-01 17:52:00,34.0,25.0,-100.00,NE,43,7.0,11.0,68,0.00,,,0.03,,2013-02-02 00:52:00,
2013-02-01 18:02:00,34.0,25.0,-100.00,NE,43,7.0,11.0,68,0.00,,,0.03,,2013-02-02 01:02:00,
2013-02-01 18:11:00,34.0,25.0,-100.00,NE,43,7.0,11.0,68,0.00,,,0.03,,2013-02-02 01:11:00,
2013-02-01 18:41:00,34.0,23.0,-100.00,North,11,6.0,13.0,65,0.00,,,0.03,,2013-02-02 01:41:00,
2013-02-01 18:52:00,34.0,23.0,-100.00,North,11,6.0,13.0,65,0.00,,,0.03,,2013-02-02 01:52:00,
2013-02-01 19:01:00,34.0,23.0,-100.00,North,11,6.0,13.0,65,0.00,,,0.03,,2013-02-02 02:01:00,
2013-02-01 19:11:00,34.0,23.0,-100.00,North,11,6.0,13.0,65,0.00,,,0.03,,2013-02-02 02:11:00,
2013-02-01 19:41:00,34.0,22.0,-100.00,NW,315,5.0,12.0,60,0.00,,,0.03,,2013-02-02 02:41:00,
2013-02-01 19:52:00,34.0,22.0,-100.00,NW,315,5.0,12.0,60,0.00,,,0.03,,2013-02-02 02:52:00,
2013-02-01 20:02:00,34.0,22.0,-100.00,NW,315,5.0,12.0,60,0.00,,,0.03,,2013-02-02 03:02:00,
2013-02-01 20:11:00,34.0,22.0,-100.00,NW,315,5.0,12.0,60,0.00,,,0.03,,2013-02-02 03:11:00,
2013-02-01 20:42:00,32.0,22.0,-100.00,North,7,5.0,9.0,67,0.00,,,0.03,,2013-02-02 03:42:00,
2013-02-01 20:52:00,32.0,22.0,-100.00,North,7,5.0,9.0,67,0.00,,,0.03,,2013-02-02 03:52:00,
2013-02-01 21:01:00,32.0,22.0,-100.00,North,7,5.0,9.0,67,0.00,,,0.03,,2013-02-02 04:01:00,
2013-02-01 21:11:00,32.0,22.0,-100.00,North,7,5.0,9.0,67,0.00,,,0.03,,2013-02-02 04:11:00,
2013-02-01 21:41:00,27.0,22.0,-100.00,North,358,2.0,5.0,80,0.00,,,0.03,,2013-02-02 04:41:00,
2013-02-01 21:52:00,27.0,22.0,-100.00,North,358,2.0,5.0,80,0.00,,,0.03,,2013-02-02 04:52:00,
2013-02-01 22:03:00,27.0,22.0,-100.00,North,358,2.0,5.0,80,0.00,,,0.03,,2013-02-02 05:03:00,
2013-02-01 22:11:00,27.0,22.0,-100.00,North,358,2.0,5.0,80,0.00,,,0.03,,2013-02-02 05:11:00,
2013-02-01 22:41:00,27.0,22.0,-100.00,SW,224,4.0,7.0,84,0.00,,,0.03,,2013-02-02 05:41:00,
2013-02-01 22:52:00,27.0,22.0,-100.00,SW,224,4.0,7.0,84,0.00,,,0.03,,2013-02-02 05:52:00,
2013-02-01 23:02:00,27.0,22.0,-100.00,SW,224,4.0,7.0,84,0.00,,,0.03,,2013-02-02 06:02:00,
2013-02-01 23:12:00,27.0,22.0,-100.00,SW,224,4.0,7.0,84,0.00,,,0.03,,2013-02-02 06:12:00,
2013-02-01 23:41:00,27.0,21.0,-100.00,SW,219,6.0,8.0,78,0.00,,,0.03,,2013-02-02 06:41:00,
2013-02-01 23:52:00,27.0,21.0,-100.00,SW,219,6.0,8.0,78,0.00,,,0.03,,2013-02-02 06:52:00,